Weather History for EGVO - March, 2013

Change the Weather History Date:

Sunday, March 3, 2013

  Actual Average Record
Temperature  
Mean Temperature 33 °F -  
Max Temperature 43 °F - - ()
Min Temperature 23 °F - - ()
Degree Days  
Heating Degree Days 32    
Moisture  
Dew Point 31 °F    
Average Humidity 86    
Maximum Humidity 100    
Minimum Humidity 69    
Precipitation  
Precipitation 0.00 in - - ()
Sea Level Pressure  
Sea Level Pressure 30.19 in    
Wind  
Wind Speed 4 mph ()    
Max Wind Speed 13 mph    
Max Gust Speed -    
Visibility 5.5 miles    
Events      
T = Trace of Precipitation, MM = Missing Value Source: Averaged Metar Reports

Daily Weather History Graph

Daily Weather History Graph

Search for Another Location

Airport or City:

Trip Planner

Search our weather history database for the weather conditions in past years. The results will help you decide how hot, cold, wet, or windy it might be!

Date:

Astronomy

Mar. 03, 2013 Rise Set
Actual Time 6:44 AM GMT 5:48 PM GMT
Civil Twilight 6:10 AM GMT 6:21 PM GMT
Nautical Twilight 5:32 AM GMT 6:59 PM GMT
Astronomical Twilight 4:53 AM GMT 7:38 PM GMT
Moon No Moon Rise 9:03 AM GMT (3/3)
Length of Visible Light 12h 10m
Length of Day
11h 03m
Waning Gibbous, 66% of the Moon is Illuminated
Mar 3
Waning Gibbous
Mar 4
Last Quarter
Mar 11
New
Mar 19
First Quarter
Mar 27
Full

Hourly Weather History & Observations

Time (GMT) Temp. Windchill Dew Point Humidity Pressure Visibility Wind Dir Wind Speed Gust Speed Precip Events Conditions
12:50 AM 24.8 °F - 24.8 °F 100% 30.27 in 3.7 mi East 1.2 mph - N/A   Haze
1:50 AM 23.0 °F - 23.0 °F 100% 30.27 in 0.9 mi Calm Calm - N/A   Clear
2:50 AM 26 °F - 25 °F 93% 30.29 in 2 mi West 1.2 mph - -   Mist
2:50 AM 26.6 °F - 24.8 °F 93% 30.24 in 1.9 mi West 1.2 mph - N/A   Clear
3:50 AM 23.0 °F - 21.2 °F 93% 30.24 in 1.9 mi NW 1.2 mph - N/A   Scattered Clouds
4:50 AM 26.6 °F - 24.8 °F 93% 30.24 in 1.6 mi Calm Calm - N/A   Mostly Cloudy
5:50 AM 29 °F - 28 °F 96% 30.27 in 2 mi NNE 2.3 mph - -   Mist
7:50 AM 30.2 °F 25.4 °F 30.2 °F 100% 30.24 in 4.3 mi ENE 4.6 mph - N/A   Overcast
8:50 AM 32 °F - 30 °F 88% 30.26 in 4 mi NNE 6.9 mph - -   Haze
8:50 AM 32.0 °F 25.6 °F 30.2 °F 93% 30.21 in 4.3 mi NNE 6.9 mph - N/A   Haze
9:50 AM 33.8 °F 30.8 °F 32.0 °F 93% 30.21 in 5.0 mi NNE 3.5 mph - N/A   Haze
10:50 AM 35.6 °F 32.8 °F 33.8 °F 93% 30.21 in 5.0 mi NE 3.5 mph - N/A   Haze
11:50 AM 39 °F - 34 °F 77% 30.24 in 6 mi East 6.9 mph - -   Overcast
11:50 AM 39.2 °F 34.2 °F 33.8 °F 81% 30.21 in 6.2 mi East 6.9 mph - N/A   Overcast
12:50 PM 41.0 °F 35.2 °F 33.8 °F 76% 30.18 in 6.2 mi East 9.2 mph - N/A   Overcast
1:50 PM 41.0 °F 34.7 °F 35.6 °F 81% 30.18 in 6.2 mi East 10.4 mph - N/A   Overcast
2:50 PM 42 °F - 35 °F 69% 30.19 in 14 mi East 10.4 mph - -   Overcast
2:50 PM 42.8 °F 37.0 °F 35.6 °F 76% 30.15 in 6.2 mi East 10.4 mph - N/A   Overcast
3:50 PM 42.8 °F 36.2 °F 35.6 °F 76% 30.15 in 6.2 mi East 12.7 mph - N/A   Mostly Cloudy
4:50 PM 42.8 °F 36.2 °F 35.6 °F 76% 30.12 in 6.2 mi East 12.7 mph - N/A   Mostly Cloudy
5:50 PM 40 °F - 34 °F 72% 30.14 in 12 mi East 10.4 mph - -   Partly Cloudy
5:50 PM 41.0 °F 34.7 °F 33.8 °F 76% 30.12 in 6.2 mi East 10.4 mph - N/A   Scattered Clouds
6:50 PM 41.0 °F 36.4 °F 33.8 °F 76% 30.12 in 6.2 mi East 6.9 mph - N/A   Mostly Cloudy
7:50 PM 39.2 °F 32.5 °F 33.8 °F 81% 30.09 in 6.2 mi East 10.4 mph - N/A   Scattered Clouds
8:50 PM 36 °F - 33 °F 85% 30.15 in 9 mi ENE 9.2 mph - -   Scattered Clouds
8:50 PM 35.6 °F 28.6 °F 33.8 °F 93% 30.12 in 6.2 mi ENE 9.2 mph - N/A   Partly Cloudy
10:50 PM 35.6 °F 29.2 °F 33.8 °F 93% 30.09 in 6.2 mi ENE 8.1 mph - N/A   Mostly Cloudy
11:50 PM 36 °F - 34 °F 88% 30.11 in 7 mi ENE 6.9 mph - -   Mostly Cloudy
11:50 PM 35.6 °F 29.9 °F 33.8 °F 93% 30.06 in 6.2 mi ENE 6.9 mph - N/A   Mostly Cloudy